�N����,����,�~����,�C��,���x,�C��,����,���ϕ���,�ő�u�ԕ���,�ő厞����,���˗�,�I�_���x,�n�����x,�ő啗���N��,DTYPE
"21/02/11","00:10",0.0,5.5,77.9,1016.4,307.0,1.6,2.4,322.8,0.00,2.0,7.7,"00:09:52",1
"21/02/11","00:20",0.0,5.4,78.4,1016.6,309.9,1.8,2.5,316.9,0.00,2.0,7.7,"00:15:12",1
"21/02/11","00:30",0.0,5.3,79.2,1015.9,302.6,2.1,3.2,320.1,0.00,2.0,7.6,"00:24:32",1
"21/02/11","00:40",0.0,5.0,79.7,1016.1,312.8,2.0,2.6,323.1,0.00,1.8,7.5,"00:35:12",1
"21/02/11","00:50",0.0,4.8,80.6,1015.9,305.9,1.5,2.1,309.3,0.00,1.8,7.2,"00:41:04",1
"21/02/11","01:00",0.0,4.6,81.5,1015.6,299.7,1.1,3.1,318.6,0.00,1.8,7.4,"00:58:56",1
"21/02/11","01:10",0.0,4.6,82.2,1015.9,306.0,2.2,3.5,326.2,0.00,1.9,7.3,"01:07:14",1
"21/02/11","01:20",0.0,5.1,82.3,1015.6,295.8,2.5,3.6,312.8,0.00,2.4,7.2,"01:10:48",1
"21/02/11","01:30",0.0,5.1,82.3,1015.6,309.2,2.2,3.6,333.0,0.00,2.4,7.2,"01:26:08",1
"21/02/11","01:40",0.0,5.3,81.9,1015.6,303.7,2.1,3.4,312.2,0.00,2.5,7.0,"01:37:44",1
"21/02/11","01:50",0.0,4.6,81.8,1015.2,141.7,0.5,1.0,302.0,0.00,1.8,7.0,"01:46:00",1
"21/02/11","02:00",0.0,3.6,82.5,1015.9,318.7,2.0,3.1,309.8,0.00,0.9,6.9,"01:53:36",1
"21/02/11","02:10",0.0,3.1,83.3,1015.6,300.9,1.2,1.9,312.4,0.00,0.6,6.7,"02:04:48",1
"21/02/11","02:20",0.0,3.0,84.3,1015.9,312.8,2.3,3.5,328.7,0.00,0.7,6.8,"02:18:40",1
"21/02/11","02:30",0.0,3.4,85.0,1015.4,297.0,2.2,2.9,309.2,0.00,1.2,6.7,"02:20:16",1
"21/02/11","02:40",0.0,3.5,85.7,1015.9,324.1,2.3,3.3,335.5,0.00,1.4,6.6,"02:32:32",1
"21/02/11","02:50",0.0,3.7,86.4,1015.9,324.8,3.4,4.4,322.4,0.00,1.7,6.8,"02:46:16",1
"21/02/11","03:00",0.0,4.0,86.7,1015.6,325.2,3.9,4.9,313.5,0.00,2.0,6.6,"02:57:36",1
"21/02/11","03:10",0.0,3.9,86.8,1015.9,323.6,3.2,4.4,332.4,0.00,1.9,6.7,"03:00:16",1
"21/02/11","03:20",0.0,3.8,86.9,1016.1,312.7,2.7,4.1,321.3,0.00,1.9,6.6,"03:11:04",1
"21/02/11","03:30",0.0,3.8,87.1,1015.9,302.6,2.2,3.2,317.8,0.00,1.9,6.4,"03:26:00",1
"21/02/11","03:40",0.0,3.7,87.3,1016.1,313.4,2.3,3.5,321.3,0.00,1.8,6.5,"03:33:36",1
"21/02/11","03:50",0.0,3.2,87.3,1015.9,333.1,1.2,2.9,335.6,0.00,1.3,6.6,"03:45:28",1
"21/02/11","04:00",0.0,2.8,87.7,1015.9,306.0,0.8,1.9,311.2,0.00,1.0,6.2,"03:56:24",1
"21/02/11","04:10",0.0,2.5,88.1,1015.9,271.3,1.3,2.8,311.6,0.00,0.8,6.2,"04:07:12",1
"21/02/11","04:20",0.0,2.3,88.6,1015.9,320.3,2.2,3.4,322.1,0.00,0.7,6.3,"04:17:28",1
"21/02/11","04:30",0.0,2.1,89.1,1015.6,273.0,0.8,2.5,327.4,0.00,0.5,6.2,"04:29:28",1
"21/02/11","04:40",0.0,2.3,89.4,1015.9,331.0,1.7,3.2,317.3,0.00,0.8,6.1,"04:36:00",1
"21/02/11","04:50",0.0,1.7,89.8,1016.1,320.6,2.5,3.4,306.5,0.00,0.2,5.9,"04:47:04",1
"21/02/11","05:00",0.0,1.7,90.4,1015.9,309.2,2.1,3.6,332.2,0.00,0.3,6.2,"04:59:36",1
"21/02/11","05:10",0.0,2.5,90.5,1015.9,309.0,2.3,3.7,307.9,0.00,1.1,6.0,"05:02:32",1
"21/02/11","05:20",0.0,2.1,90.8,1016.1,333.2,1.0,3.4,307.1,0.00,0.8,6.0,"05:10:02",1
"21/02/11","05:30",0.0,1.6,91.2,1016.4,320.8,1.8,3.5,308.3,0.00,0.4,6.0,"05:26:56",1
"21/02/11","05:40",0.0,1.6,91.6,1016.1,300.4,1.6,2.6,342.4,0.00,0.4,5.8,"05:32:00",1
"21/02/11","05:50",0.0,1.8,91.9,1016.6,316.1,2.1,2.9,325.7,0.00,0.7,5.8,"05:45:52",1
"21/02/11","06:00",0.0,1.7,92.0,1016.6,306.9,2.1,3.1,323.9,0.00,0.6,5.8,"05:51:52",1
"21/02/11","06:10",0.0,1.9,92.5,1016.8,309.4,2.0,3.5,306.7,0.00,0.9,5.9,"06:09:28",1
"21/02/11","06:20",0.0,1.7,92.6,1017.3,305.7,1.7,5.0,310.6,0.00,0.7,5.9,"06:10:32",1
"21/02/11","06:30",0.0,1.5,92.8,1017.5,315.5,1.7,3.9,335.4,0.00,0.5,5.7,"06:26:48",1
"21/02/11","06:40",0.0,1.7,93.2,1017.3,327.2,2.8,4.5,321.4,0.00,0.8,5.6,"06:36:08",1
"21/02/11","06:50",0.0,2.2,93.4,1017.8,326.0,3.1,5.0,338.9,0.00,1.3,5.8,"06:48:40",1
"21/02/11","07:00",0.0,2.7,93.5,1018.0,329.3,2.6,3.4,312.8,0.00,1.8,5.7,"06:50:56",1
"21/02/11","07:10",0.0,3.2,93.6,1018.5,338.5,2.3,3.5,341.0,0.00,2.3,5.7,"07:00:02",1
"21/02/11","07:20",0.0,3.6,93.5,1018.7,319.4,1.5,3.4,341.8,0.00,2.7,5.8,"07:12:16",1
"21/02/11","07:30",0.0,3.5,93.5,1018.5,277.8,0.8,2.6,317.9,0.00,2.6,5.7,"07:29:44",1
"21/02/11","07:40",0.0,3.6,93.6,1018.5,304.7,2.3,3.1,318.8,0.01,2.7,5.9,"07:31:44",1
"21/02/11","07:50",0.0,3.8,93.6,1018.7,284.0,1.7,2.1,289.7,0.02,2.9,5.7,"07:42:24",1
"21/02/11","08:00",0.0,4.2,93.7,1019.4,310.0,1.1,1.4,285.8,0.03,3.3,6.2,"07:52:40",1
"21/02/11","08:10",0.0,4.7,93.5,1019.7,272.2,0.7,1.7,312.1,0.05,3.8,6.1,"08:02:32",1
"21/02/11","08:20",0.0,4.8,93.3,1019.7,300.7,1.5,2.8,315.6,0.05,3.9,6.2,"08:19:14",1
"21/02/11","08:30",0.0,5.5,93.0,1019.9,270.8,1.0,1.6,295.6,0.09,4.5,5.9,"08:20:08",1
"21/02/11","08:40",0.0,6.0,92.4,1020.4,268.8,0.8,1.4,251.0,0.10,4.9,6.3,"08:35:18",1
"21/02/11","08:50",0.0,6.7,92.4,1020.4,279.3,1.1,1.8,288.3,0.12,5.6,6.5,"08:40:02",1
"21/02/11","09:00",0.0,7.2,91.7,1020.6,283.6,0.8,1.6,295.5,0.14,6.0,6.6,"08:50:10",1
"21/02/11","09:10",0.0,7.4,90.7,1020.8,267.5,0.7,1.7,308.5,0.17,6.0,6.9,"09:02:24",1
"21/02/11","09:20",0.0,7.7,89.2,1021.3,231.1,0.6,1.2,345.7,0.19,6.1,7.0,"09:18:08",1
"21/02/11","09:30",0.0,8.2,87.4,1021.1,203.0,0.7,1.8,124.2,0.22,6.3,7.2,"09:25:04",1
"21/02/11","09:40",0.0,9.2,84.0,1021.1,224.1,1.0,2.5,245.0,0.24,6.7,7.4,"09:39:52",1
"21/02/11","09:50",0.0,9.7,79.0,1020.8,228.6,1.2,2.6,191.9,0.28,6.3,7.7,"09:47:28",1
"21/02/11","10:00",0.0,10.0,73.7,1020.4,276.7,1.8,4.1,316.4,0.30,5.6,7.7,"09:54:48",1
"21/02/11","10:10",0.0,10.6,70.0,1020.4,272.4,1.7,3.3,293.8,0.32,5.4,7.8,"10:07:04",1
"21/02/11","10:20",0.0,11.0,68.0,1020.4,301.5,1.2,2.7,243.5,0.31,5.4,8.2,"10:12:40",1
"21/02/11","10:30",0.0,10.8,67.2,1020.4,157.7,1.5,3.3,154.5,0.31,5.0,8.5,"10:24:08",1
"21/02/11","10:40",0.0,11.1,64.6,1020.1,302.4,1.8,3.9,339.9,0.33,4.7,8.5,"10:37:28",1
"21/02/11","10:50",0.0,11.4,61.2,1020.4,350.4,2.0,6.8,346.4,0.41,4.2,9.0,"10:49:44",1
"21/02/11","11:00",0.0,11.3,59.8,1020.4,347.5,3.5,7.4,337.6,0.40,3.8,9.0,"10:51:36",1
"21/02/11","11:10",0.0,11.3,57.3,1020.4,344.9,3.9,8.5,331.1,0.46,3.2,9.0,"11:07:28",1
"21/02/11","11:20",0.0,12.1,55.9,1020.1,339.0,2.8,6.4,349.6,0.46,3.6,9.3,"11:14:24",1
"21/02/11","11:30",0.0,12.2,53.7,1020.4,320.0,2.8,5.8,329.6,0.34,3.1,9.6,"11:20:40",1
"21/02/11","11:40",0.0,11.6,54.2,1020.4,350.6,3.2,6.4,338.4,0.28,2.7,9.7,"11:34:00",1
"21/02/11","11:50",0.0,12.4,52.9,1020.4,340.7,2.8,8.1,335.2,0.46,3.1,9.8,"11:46:48",1
"21/02/11","12:00",0.0,12.5,50.4,1020.6,349.4,2.2,4.4,353.9,0.36,2.5,9.8,"11:59:20",1
"21/02/11","12:10",0.0,12.5,50.2,1020.4,326.9,2.7,6.7,327.0,0.37,2.5,10.2,"12:09:36",1
"21/02/11","12:20",0.0,12.1,50.1,1020.4,342.7,3.5,7.7,337.2,0.34,2.1,10.2,"12:16:00",1
"21/02/11","12:30",0.0,12.2,50.5,1019.7,336.2,4.4,8.0,344.1,0.33,2.3,10.2,"12:20:56",1
"21/02/11","12:40",0.0,13.0,48.7,1020.1,330.4,3.4,7.0,336.9,0.51,2.5,10.5,"12:37:52",1
"21/02/11","12:50",0.0,12.1,49.3,1019.7,348.1,2.7,6.0,327.6,0.19,1.8,10.4,"12:44:16",1
"21/02/11","13:00",0.0,12.1,50.3,1019.4,343.0,4.1,7.9,329.7,0.30,2.1,10.4,"12:55:28",1
"21/02/11","13:10",0.0,12.2,47.6,1019.0,343.7,4.7,9.3,303.2,0.43,1.4,10.6,"13:02:56",1
"21/02/11","13:20",0.0,12.5,46.7,1019.2,345.8,4.2,8.9,343.1,0.48,1.5,10.6,"13:12:08",1
"21/02/11","13:30",0.0,13.2,46.7,1018.7,325.0,3.1,6.4,339.6,0.45,2.1,10.9,"13:26:26",1
"21/02/11","13:40",0.0,12.7,45.8,1018.5,333.7,5.2,8.6,340.5,0.44,1.4,11.1,"13:36:16",1
"21/02/11","13:50",0.0,12.7,47.1,1018.7,337.8,5.1,10.1,316.1,0.43,1.8,11.2,"13:45:48",1
"21/02/11","14:00",0.0,12.7,45.7,1018.2,343.8,5.1,14.1,341.2,0.42,1.3,11.1,"13:55:04",1
"21/02/11","14:10",0.0,12.5,45.2,1018.0,342.6,5.6,11.2,343.8,0.41,1.0,11.1,"14:03:44",1
"21/02/11","14:20",0.0,12.7,44.3,1018.2,336.4,5.1,10.1,321.0,0.40,0.9,11.2,"14:10:02",1
"21/02/11","14:30",0.0,12.7,45.0,1018.2,339.9,4.6,9.6,339.2,0.37,1.1,11.2,"14:20:08",1
"21/02/11","14:40",0.0,12.6,46.2,1018.5,339.7,4.9,9.8,322.7,0.35,1.4,11.3,"14:34:00",1
"21/02/11","14:50",0.0,12.9,45.7,1018.7,326.9,3.7,7.2,325.6,0.33,1.5,11.3,"14:49:28",1
"21/02/11","15:00",0.0,12.8,44.5,1019.4,346.3,3.7,6.4,334.5,0.28,1.1,11.3,"14:53:20",1
"21/02/11","15:10",0.0,12.7,44.8,1019.2,349.6,3.9,8.1,332.8,0.26,1.1,11.4,"15:01:52",1
"21/02/11","15:20",0.0,12.6,44.3,1019.0,355.6,3.4,6.3,349.8,0.25,0.8,11.2,"15:16:08",1
"21/02/11","15:30",0.0,12.3,44.6,1019.2,339.9,4.4,8.0,314.2,0.23,0.6,11.4,"15:21:28",1
"21/02/11","15:40",0.0,12.1,46.0,1018.7,339.3,4.1,7.3,316.1,0.19,0.9,11.2,"15:33:36",1
"21/02/11","15:50",0.0,12.3,46.4,1018.7,354.8,3.0,6.8,350.5,0.18,1.2,11.0,"15:42:08",1
"21/02/11","16:00",0.0,12.1,47.5,1019.2,338.3,3.7,7.5,339.1,0.15,1.3,11.0,"15:54:16",1
"21/02/11","16:10",0.0,11.8,48.6,1018.5,342.4,3.6,6.3,341.9,0.13,1.4,11.0,"16:06:16",1
"21/02/11","16:20",0.0,11.9,49.8,1018.5,337.1,3.0,6.0,340.2,0.12,1.8,11.0,"16:10:32",1
"21/02/11","16:30",0.0,11.5,49.1,1018.7,321.7,3.9,7.0,343.2,0.09,1.2,10.7,"16:21:36",1
"21/02/11","16:40",0.0,11.2,50.5,1019.0,328.9,4.5,6.8,323.7,0.07,1.3,10.8,"16:39:04",1
"21/02/11","16:50",0.0,10.9,51.2,1019.0,337.9,3.5,6.3,344.4,0.04,1.3,10.6,"16:48:56",1
"21/02/11","17:00",0.0,10.7,52.7,1019.2,344.1,3.1,6.2,334.3,0.02,1.5,10.5,"16:51:44",1
"21/02/11","17:10",0.0,10.3,54.0,1019.4,335.0,3.6,6.5,335.8,0.01,1.4,10.4,"17:03:28",1
"21/02/11","17:20",0.0,10.1,54.6,1019.7,321.0,4.1,6.0,314.3,0.01,1.4,10.3,"17:12:00",1
"21/02/11","17:30",0.0,9.8,56.3,1019.4,327.8,3.0,4.9,321.2,0.00,1.6,10.0,"17:23:12",1
"21/02/11","17:40",0.0,9.5,57.8,1019.2,332.8,2.5,4.7,327.5,0.00,1.6,10.1,"17:30:40",1
"21/02/11","17:50",0.0,9.2,58.5,1019.2,330.2,2.2,5.4,330.6,0.00,1.5,9.8,"17:47:36",1
"21/02/11","18:00",0.0,9.1,58.9,1019.4,342.4,2.0,4.0,340.1,0.00,1.5,9.9,"17:56:40",1
"21/02/11","18:10",0.0,8.8,59.9,1019.7,333.0,1.7,2.4,335.4,0.00,1.5,9.5,"18:00:08",1
"21/02/11","18:20",0.0,8.3,62.2,1019.4,337.5,1.8,2.7,325.3,0.00,1.5,9.6,"18:18:32",1
"21/02/11","18:30",0.0,7.5,64.9,1019.4,320.8,2.1,2.8,319.6,0.00,1.4,9.4,"18:20:40",1
"21/02/11","18:40",0.0,7.1,67.2,1019.7,296.8,1.8,2.8,319.7,0.00,1.5,9.2,"18:30:16",1
"21/02/11","18:50",0.0,6.7,68.8,1019.2,316.8,1.7,2.6,312.4,0.00,1.4,9.2,"18:47:44",1
"21/02/11","19:00",0.0,6.3,70.0,1019.2,301.9,1.2,2.0,271.2,0.00,1.3,9.0,"18:53:20",1
"21/02/11","19:10",0.0,6.2,71.1,1019.7,301.3,1.5,2.0,319.3,0.00,1.4,8.8,"19:07:20",1
"21/02/11","19:20",0.0,6.1,72.2,1019.4,312.4,2.0,3.6,322.2,0.00,1.5,8.6,"19:16:40",1
"21/02/11","19:30",0.0,6.0,73.2,1019.4,297.2,1.5,2.5,269.8,0.00,1.6,8.7,"19:25:04",1
"21/02/11","19:40",0.0,5.8,74.0,1019.4,307.3,2.0,2.5,299.8,0.00,1.6,8.5,"19:33:44",1
"21/02/11","19:50",0.0,5.6,74.7,1019.2,310.4,1.6,2.1,315.4,0.00,1.5,8.5,"19:40:40",1
"21/02/11","20:00",0.0,5.4,75.6,1019.2,285.9,1.5,2.5,270.9,0.00,1.5,8.4,"19:59:28",1
"21/02/11","20:10",0.0,5.6,76.3,1019.4,292.7,2.1,2.4,297.5,0.00,1.8,8.2,"20:06:56",1
"21/02/11","20:20",0.0,5.7,77.0,1019.2,290.9,2.1,2.6,292.8,0.00,2.0,8.4,"20:15:12",1
"21/02/11","20:30",0.0,5.8,77.4,1019.2,306.6,2.7,3.4,327.7,0.00,2.2,8.1,"20:29:44",1
"21/02/11","20:40",0.0,5.8,77.9,1019.0,309.3,3.1,4.2,315.5,0.00,2.3,8.2,"20:36:40",1
"21/02/11","20:50",0.0,5.7,78.4,1019.0,304.8,2.6,3.6,315.0,0.00,2.3,8.0,"20:45:12",1
"21/02/11","21:00",0.0,5.7,79.0,1018.7,312.6,3.0,3.9,316.4,0.00,2.4,8.0,"20:59:52",1
"21/02/11","21:10",0.0,5.8,79.5,1019.0,319.0,3.6,4.9,311.7,0.00,2.6,8.0,"21:05:52",1
"21/02/11","21:20",0.0,5.7,80.1,1019.2,326.7,3.4,5.0,324.1,0.00,2.6,8.1,"21:14:24",1
"21/02/11","21:30",0.0,5.6,80.8,1019.2,323.1,3.5,4.5,324.1,0.00,2.6,7.8,"21:25:36",1
"21/02/11","21:40",0.0,5.6,81.1,1018.7,307.6,3.5,5.1,333.4,0.00,2.7,7.9,"21:30:16",1
"21/02/11","21:50",0.0,5.5,81.4,1019.2,299.8,2.7,4.3,323.6,0.00,2.6,7.8,"21:40:16",1
"21/02/11","22:00",0.0,5.6,81.7,1019.0,326.3,3.6,4.7,328.3,0.00,2.8,7.9,"21:54:32",1
"21/02/11","22:10",0.0,5.6,81.7,1019.0,316.5,3.2,4.9,322.7,0.00,2.8,7.7,"22:01:44",1
"21/02/11","22:20",0.0,5.5,81.9,1019.2,313.9,2.1,2.9,306.1,0.00,2.7,7.6,"22:11:12",1
"21/02/11","22:30",0.0,5.5,82.0,1018.7,280.7,2.2,2.9,249.7,0.00,2.7,7.7,"22:23:44",1
"21/02/11","22:40",0.0,5.2,82.2,1018.5,294.9,1.5,3.1,323.4,0.00,2.5,7.5,"22:31:36",1
"21/02/11","22:50",0.0,5.0,82.4,1018.2,295.2,0.8,1.7,307.6,0.00,2.3,7.4,"22:47:36",1
"21/02/11","23:00",0.0,4.9,82.9,1018.7,257.9,1.0,2.2,289.4,0.00,2.3,7.6,"22:59:52",1
"21/02/11","23:10",0.0,4.9,83.2,1018.5,316.2,2.1,4.0,319.0,0.00,2.3,7.4,"23:00:02",1
"21/02/11","23:20",0.0,4.6,83.8,1018.7,298.6,2.1,3.6,316.6,0.00,2.1,7.1,"23:10:08",1
"21/02/11","23:30",0.0,4.6,84.3,1018.5,284.8,1.7,2.5,317.8,0.00,2.2,7.3,"23:26:00",1
"21/02/11","23:40",0.0,4.7,84.7,1018.2,303.2,1.3,2.2,318.3,0.00,2.4,7.3,"23:37:36",1
"21/02/11","23:50",0.0,4.8,85.1,1018.2,321.4,1.7,2.5,325.2,0.00,2.6,7.4,"23:49:04",1
"21/02/11","24:00",0.0,4.4,85.2,1018.7,312.8,2.1,3.5,318.0,0.00,2.2,7.2,"23:52:16",1
